[[{"header":{"parameterUnit":"m.s-1","parameterCategory":1,"la1":30.2991,"la2":30.254,"lo1":-89.0895,"lo2":-89.0444,"dy":0.0017,"dx":0.0017,"nx":28,"ny":28,"refTime":"2023-10-18T03:00:00:Z","depth":0,"parameterNumber":2,"parameterNumberName":"U-component_of_WINDS"},"data":[0,0,0,0,0,0,0,0,0,0,0,0,0,0,0,0,0,0,0,0,0,0,0,0,0,0,0,0,0,0,0,0,0,0,0,0,0,0,0,0,0,0,0,0,0,0,0,0,0,0,0,0,0,0,0,0,0,0,-0.4535,-0.4535,0,-0.4481,-0.4481,-0.448,-0.4472,-0.4473,-0.4473,-0.4474,-0.4417,-0.4415,-0.4413,0,0,0,0,0,0,0,0,0,0,0,0,0,-0.4629,-0.4628,-0.4535,-0.4535,-0.4534,-0.4482,-0.4481,-0.448,-0.4472,-0.4473,-0.4473,-0.4474,-0.4417,-0.4415,-0.4413,0,0,0,0,0,0,0,0,0,0,0,0,0,-0.4583,-0.4627,-0.4535,-0.4524,-0.4522,-0.4482,-0.4481,-0.448,-0.4472,-0.4473,-0.4474,-0.4474,-0.4418,-0.4415,-0.4412,-0.4379,0,0,-0.4403,-0.4402,0,0,0,0,0,0,0,0,-0.4586,-0.458,-0.4526,-0.4524,-0.4523,-0.4484,-0.4493,-0.4446,-0.4472,-0.4491,-0.4474,-0.4475,-0.4439,-0.4434,-0.4422,-0.4376,-0.4374,-0.4403,-0.4401,-0.44,-0.4399,0,0,0,0,0,0,0,-0.4589,-0.4582,-0.4514,-0.4525,-0.4523,-0.4521,-0.4515,-0.4484,-0.4461,-0.4489,-0.4489,-0.4483,-0.4438,-0.4425,-0.4421,-0.4373,-0.4403,-0.44,-0.4399,-0.4397,-0.4297,-0.4296,0,0,0,0,0,0,-0.4595,-0.4585,-0.4516,-0.4512,-0.4557,-0.4518,-0.4512,-0.4496,-0.4462,-0.4457,-0.4482,-0.4482,-0.443,-0.4424,-0.4419,-0.4377,-0.44,-0.4397,-0.4395,-0.4298,-0.4296,-0.4295,0,0,0,0,0,0,-0.4597,-0.4589,-0.4518,-0.4548,-0.4539,-0.4516,-0.4498,-0.4494,-0.4482,-0.4456,-0.4452,-0.4473,-0.443,-0.4423,-0.4389,-0.4375,-0.4396,-0.4393,-0.4299,-0.4297,-0.4296,-0.4294,0,0,0,0,0,0,-0.4599,-0.4589,-0.4577,-0.4548,-0.4538,-0.449,-0.4497,-0.4493,-0.4477,-0.4477,-0.4447,-0.4442,-0.443,-0.4393,-0.4386,-0.4371,-0.4391,-0.43,-0.4298,-0.4296,-0.4295,-0.4292,-0.429,0,0,0,0,0,-0.4603,-0.4578,-0.4576,-0.4568,-0.4522,-0.4489,-0.4483,-0.447,-0.4476,-0.4463,-0.4446,-0.4443,-0.4378,-0.439,-0.4382,-0.4366,-0.4301,-0.4298,-0.4297,-0.4296,-0.4293,-0.429,0,0,0,0,0,0,-0.4606,-0.4574,-0.4572,-0.4537,-0.4516,-0.4488,-0.4471,-0.4467,-0.4443,-0.4444,-0.4428,-0.4421,-0.4388,-0.4373,-0.4388,-0.4331,-0.434,-0.4336,-0.4342,-0.4339,-0.4337,-0.434,-0.4388,0,0,0,0,0,-0.4602,-0.4579,-0.4552,-0.4524,-0.4514,-0.4494,-0.4479,-0.4471,-0.4448,-0.4439,-0.442,-0.4397,-0.4371,-0.4354,-0.4329,-0.4293,-0.4286,-0.4278,-0.4275,-0.4274,-0.427,-0.4249,-0.4245,-0.4289,-0.4289,-0.4289,0,0,-0.4595,-0.4575,-0.4561,-0.4524,-0.4507,-0.4482,-0.4487,-0.446,-0.4442,-0.4435,-0.4401,-0.4387,-0.436,-0.4325,-0.4308,-0.4311,-0.4257,-0.4271,-0.427,-0.4267,-0.4247,-0.4243,-0.4239,-0.4287,-0.4288,-0.4288,0,0,-0.4569,-0.4552,-0.4526,-0.4508,-0.4482,-0.4469,-0.4463,-0.4435,-0.4425,-0.4392,-0.4386,-0.4363,-0.4319,-0.43,-0.4285,-0.4251,-0.4247,-0.4243,-0.4231,-0.4211,-0.4207,-0.4204,-0.4191,-0.4187,-0.424,-0.424,-0.424,0,-0.4563,-0.4526,-0.4513,-0.4487,-0.4471,-0.4464,-0.4438,-0.4421,-0.4387,-0.4376,-0.438,-0.4325,-0.4306,-0.4266,-0.4258,-0.4246,-0.4238,-0.4246,-0.4209,-0.4205,-0.4202,-0.419,-0.4185,-0.424,-0.424,-0.424,-0.424,0,-0.452,-0.4494,-0.4477,-0.4445,-0.4427,-0.44,-0.4383,-0.4366,-0.436,-0.4346,-0.4311,-0.4289,-0.4259,-0.4249,-0.4242,-0.4208,-0.4211,-0.4212,-0.422,-0.4198,-0.4186,-0.4181,-0.4239,-0.4239,-0.4239,-0.424,0,0,-0.4494,-0.4455,-0.4449,-0.4434,-0.4404,-0.4383,-0.4357,-0.4328,-0.4313,-0.429,-0.4267,-0.423,-0.4231,-0.4213,-0.4204,-0.4187,-0.4161,-0.419,-0.4189,-0.4185,-0.412,-0.4119,-0.4113,-0.4158,-0.4157,-0.4156,-0.4122,0,-0.4464,-0.4416,-0.4404,-0.4363,-0.4339,-0.4332,-0.4308,-0.4287,-0.4274,-0.425,-0.4235,-0.4209,-0.4213,-0.4202,-0.4185,-0.4168,-0.4147,-0.417,-0.4135,-0.4134,-0.4142,-0.4107,-0.4106,-0.4074,-0.4117,-0.4117,-0.4116,0,-0.4422,-0.4399,-0.4356,-0.4328,-0.4318,-0.4297,-0.4269,-0.4247,-0.4223,-0.4214,-0.4195,-0.4187,-0.4158,-0.4168,-0.4127,-0.4143,-0.4128,-0.4118,-0.4116,-0.4112,-0.4123,-0.4101,-0.4064,-0.4059,-0.4109,-0.4109,-0.411,0,-0.4407,-0.4364,-0.4333,-0.432,-0.4288,-0.4273,-0.4259,-0.4235,-0.4218,-0.4194,-0.4182,-0.4155,-0.414,-0.4118,-0.4103,-0.4112,-0.4063,-0.4072,-0.4054,-0.4055,-0.4044,-0.4045,-0.4003,-0.4036,-0.4036,-0.4036,-0.4036,0,-0.4374,-0.4348,-0.4325,-0.4306,-0.4276,-0.4262,-0.4232,-0.4218,-0.4197,-0.4174,-0.4166,-0.4144,-0.4126,-0.4102,-0.409,-0.4058,-0.4051,-0.4043,-0.404,-0.4043,-0.4044,-0.4032,-0.4034,-0.4035,-0.4035,-0.4035,-0.4035,0,-0.4351,-0.4335,-0.4301,-0.4273,-0.4265,-0.4244,-0.422,-0.42,-0.4187,-0.4158,-0.415,-0.4128,-0.4099,-0.4082,-0.4046,-0.4038,-0.4002,-0.4,-0.401,-0.4009,-0.3992,-0.3993,-0.394,-0.3932,-0.3971,-0.3971,-0.3971,0,-0.4331,-0.4311,-0.4281,-0.4265,-0.4251,-0.4226,-0.4208,-0.4193,-0.4176,-0.4146,-0.413,-0.4101,-0.4076,-0.403,-0.4011,-0.3983,-0.398,-0.3963,-0.3975,-0.3979,-0.3978,-0.398,-0.3977,-0.3961,-0.3961,-0.396,-0.396,0,-0.4297,-0.429,-0.4266,-0.4239,-0.4219,-0.4196,-0.4174,-0.4162,-0.4143,-0.4123,-0.4094,-0.4075,-0.4038,-0.4008,-0.3979,-0.3963,-0.3958,-0.3956,-0.3951,-0.3953,-0.396,-0.3955,-0.4004,-0.3958,-0.3958,-0.3958,-0.3958,-0.3958,-0.4275,-0.4256,-0.4232,-0.4205,-0.4187,-0.4166,-0.4146,-0.413,-0.4105,-0.4074,-0.4067,-0.4035,-0.4011,-0.397,-0.3954,-0.3929,-0.3931,-0.3923,-0.3921,-0.3919,-0.3918,-0.3965,-0.3923,-0.3923,-0.3923,-0.3923,-0.3923,0,-0.424,-0.4224,-0.4199,-0.4168,-0.4147,-0.4145,-0.412,-0.4102,-0.4075,-0.4052,-0.4028,-0.3994,-0.3966,-0.3944,-0.3915,-0.3899,-0.3895,-0.3891,-0.3892,-0.3888,-0.3918,-0.3925,-0.3894,-0.3894,-0.3894,-0.3894,-0.3894,-0.3894,-0.4219,-0.4187,-0.4177,-0.4135,-0.4119,-0.4089,-0.4075,-0.4055,-0.4037,-0.4,-0.3976,-0.3962,-0.394,-0.3908,-0.3882,-0.3876,-0.3865,-0.3861,-0.3855,-0.3883,-0.3886,-0.3889,-0.3896,-0.3859,-0.3859,-0.3827,-0.3827,-0.3827]},{"header":{"parameterUnit":"m.s-1","parameterCategory":1,"la1":30.2991,"la2":30.254,"lo1":-89.0895,"lo2":-89.0444,"dy":0.0017,"dx":0.0017,"nx":28,"ny":28,"refTime":"2023-10-18T03:00:00:Z","depth":0,"parameterNumber":3,"parameterNumberName":"V-component_of_WINDS"},"data":[0,0,0,0,0,0,0,0,0,0,0,0,0,0,0,0,0,0,0,0,0,0,0,0,0,0,0,0,0,0,0,0,0,0,0,0,0,0,0,0,0,0,0,0,0,0,0,0,0,0,0,0,0,0,0,0,0,0,2.8517,2.8516,0,2.8395,2.8393,2.8392,2.8325,2.8325,2.8325,2.8324,2.819,2.8186,2.8183,0,0,0,0,0,0,0,0,0,0,0,0,0,2.8686,2.8683,2.8518,2.8516,2.8515,2.8395,2.8393,2.8392,2.8325,2.8325,2.8324,2.8324,2.8191,2.8187,2.8182,0,0,0,0,0,0,0,0,0,0,0,0,0,2.8593,2.8682,2.8518,2.8467,2.8461,2.8395,2.8393,2.8391,2.8325,2.8325,2.8324,2.8324,2.8192,2.8187,2.8182,2.8154,0,0,2.8166,2.8164,0,0,0,0,0,0,0,0,2.8598,2.8586,2.8476,2.847,2.8464,2.8375,2.8403,2.8311,2.8325,2.8376,2.8324,2.8324,2.8251,2.8241,2.8218,2.8148,2.8142,2.8166,2.8162,2.816,2.8159,0,0,0,0,0,0,0,2.8605,2.8591,2.8469,2.8475,2.8467,2.8447,2.8434,2.8385,2.8316,2.8372,2.8367,2.8354,2.8247,2.8223,2.8214,2.814,2.8166,2.8161,2.8158,2.8156,2.8039,2.8039,0,0,0,0,0,0,2.862,2.8597,2.8473,2.8465,2.8532,2.8445,2.843,2.8404,2.8316,2.8303,2.8354,2.8351,2.8232,2.822,2.8209,2.817,2.816,2.8155,2.8152,2.8039,2.8039,2.8039,0,0,0,0,0,0,2.8624,2.861,2.8478,2.853,2.8511,2.8442,2.8413,2.8401,2.8377,2.8303,2.8289,2.8342,2.8231,2.8217,2.8169,2.8165,2.8153,2.8148,2.8039,2.8039,2.8039,2.8093,0,0,0,0,0,0,2.8629,2.8612,2.8603,2.853,2.8509,2.8442,2.8413,2.8399,2.8369,2.8364,2.8289,2.8276,2.823,2.8177,2.8164,2.8157,2.8144,2.8039,2.8039,2.8039,2.8091,2.8094,2.8097,0,0,0,0,0,2.8636,2.8621,2.8603,2.8588,2.8497,2.8442,2.8429,2.838,2.8369,2.8358,2.831,2.8278,2.8168,2.8172,2.8157,2.8149,2.8039,2.8039,2.8039,2.8089,2.8094,2.8097,0,0,0,0,0,0,2.8691,2.861,2.8589,2.8551,2.8504,2.8431,2.8415,2.8386,2.8339,2.8336,2.8273,2.8257,2.8215,2.8177,2.8184,2.8117,2.81,2.8097,2.8143,2.8147,2.815,2.8159,2.814,0,0,0,0,0,2.87,2.8665,2.8595,2.8568,2.8546,2.8485,2.8459,2.8425,2.8373,2.8352,2.83,2.8249,2.8202,2.8172,2.8125,2.8085,2.8067,2.8072,2.8075,2.8079,2.8076,2.8051,2.8052,2.8039,2.8039,2.8039,0,0,2.8715,2.8667,2.8648,2.8578,2.8538,2.85,2.8468,2.843,2.8401,2.8345,2.8297,2.8258,2.8195,2.8152,2.8129,2.8119,2.8076,2.8079,2.8082,2.8077,2.8051,2.8052,2.8053,2.8039,2.8039,2.8039,0,0,2.8725,2.8686,2.8659,2.862,2.8561,2.852,2.8514,2.8445,2.8417,2.8369,2.8326,2.8289,2.8211,2.8168,2.8136,2.813,2.8097,2.8116,2.8133,2.8109,2.811,2.811,2.8107,2.8106,2.8114,2.8114,2.8114,0,2.8752,2.8697,2.8648,2.8613,2.8582,2.8533,2.8503,2.8467,2.8394,2.8372,2.8362,2.8263,2.8217,2.8162,2.8161,2.8137,2.8125,2.8124,2.8114,2.8114,2.8114,2.811,2.8109,2.8117,2.8116,2.8116,2.8116,0,2.8731,2.8694,2.8678,2.8613,2.858,2.8548,2.8492,2.8464,2.8433,2.8393,2.8343,2.8287,2.8228,2.8212,2.818,2.8152,2.8147,2.8127,2.8108,2.8118,2.8113,2.8111,2.812,2.8119,2.8119,2.8118,0,0,2.8772,2.8681,2.8676,2.8645,2.8576,2.8544,2.8509,2.8454,2.8431,2.8382,2.8349,2.8284,2.8264,2.8228,2.8191,2.817,2.8167,2.8151,2.8149,2.8155,2.8131,2.8146,2.8145,2.8146,2.8146,2.8145,2.8136,0,2.8771,2.8708,2.8663,2.8617,2.858,2.8533,2.8502,2.8454,2.8416,2.8377,2.8333,2.8288,2.8266,2.8244,2.8221,2.8173,2.8161,2.8173,2.8112,2.8111,2.8129,2.8143,2.8159,2.8152,2.8133,2.8133,2.8133,0,2.8761,2.8717,2.8668,2.8603,2.8586,2.8559,2.8505,2.8469,2.8413,2.8386,2.8347,2.8309,2.8267,2.8253,2.8192,2.8201,2.8173,2.8146,2.8144,2.8135,2.8122,2.8133,2.8149,2.8148,2.8129,2.813,2.813,0,2.8794,2.8722,2.8684,2.8659,2.8582,2.8564,2.8531,2.8476,2.8445,2.8396,2.8376,2.8322,2.8292,2.8249,2.8197,2.8192,2.8141,2.8123,2.8115,2.8117,2.8105,2.8107,2.8116,2.809,2.809,2.809,2.809,0,2.8797,2.8769,2.8698,2.8674,2.864,2.8587,2.8554,2.8516,2.8467,2.8432,2.8387,2.8355,2.8289,2.8248,2.8206,2.8161,2.8148,2.8123,2.8112,2.8127,2.813,2.8107,2.8105,2.809,2.809,2.809,2.809,0,2.8828,2.878,2.8734,2.8666,2.8648,2.8626,2.8566,2.8539,2.8499,2.8456,2.8443,2.8378,2.8328,2.8272,2.8202,2.8174,2.8131,2.8116,2.8151,2.8144,2.8139,2.814,2.8133,2.8128,2.8107,2.8107,2.8108,0,2.8833,2.881,2.8741,2.8716,2.8685,2.8645,2.8615,2.8561,2.8531,2.8466,2.8447,2.8394,2.8348,2.8269,2.8214,2.816,2.8142,2.8143,2.8133,2.8148,2.814,2.8142,2.8139,2.8146,2.8146,2.8147,2.8147,0,2.8846,2.8823,2.8783,2.8734,2.87,2.8658,2.8613,2.8595,2.8532,2.85,2.845,2.8415,2.8344,2.8291,2.8231,2.8192,2.8158,2.8151,2.8146,2.816,2.8181,2.8168,2.8157,2.8151,2.8151,2.8151,2.815,2.815,2.8862,2.884,2.8788,2.8744,2.8706,2.8666,2.8638,2.8595,2.8553,2.8494,2.8464,2.8414,2.8357,2.8272,2.8235,2.8193,2.8182,2.8175,2.8173,2.8172,2.8175,2.8189,2.8181,2.8181,2.8181,2.8181,2.8181,0,2.8872,2.8837,2.8797,2.8739,2.8703,2.8678,2.8628,2.8599,2.8557,2.8508,2.8465,2.8407,2.8355,2.8296,2.824,2.8217,2.82,2.8204,2.8205,2.8196,2.8189,2.8198,2.8219,2.8219,2.8219,2.8219,2.8219,2.8219,2.8873,2.8834,2.8805,2.8745,2.8709,2.8662,2.8635,2.8597,2.8558,2.8496,2.8454,2.8417,2.8364,2.8303,2.8254,2.8238,2.8218,2.8227,2.8206,2.82,2.8197,2.8194,2.8202,2.8223,2.8223,2.8216,2.8216,2.8216]}]]